Location: ????????
(55.1591°N, 39.1782°E)
Time: 05:17:53
(UTC+00:00)

NOSS 3-1 (C) - Pass Details

Date: 14 April 2024
Orbit: 652 x 1553 km, 63.4° (Epoch: 15 May)

Event Time Altitude Azimuth Distance (km) Brightness Sun altitude
Rises 23:59:50 0° 305° (NW) 3,587 6.4 -17.6°
Reaches altitude 10° 00:02:10 10° 308° (NW) 2,757 5.8 -17.3°
Maximum altitude 00:08:45 67° 31° (NNE) 1,250 4.3 -16.7°
Drops below altitude 10° 00:16:59 10° 114° (ESE) 3,412 6.6 -15.9°
Sets 00:20:11 0° 117° (ESE) 4,493 7.2 -15.6°
